Regional Weather Roundup
Issued by NWS

Home | Current Version | Previous Version | Graphics & Text | Print | Product List | Glossary On
Versions: 1 2 3 4 5 6 7 8 9 10 11 12 13 14 15 16 17 18 19 20 21 22 23 24 25 26 27 28 29 30 31 32 33 34 35 36 37 38 39 40 41 42 43 44 45 46 47 48 49 50
948
ASUS45 KCYS 171110
RWRWY

WYOMING REGIONAL WEATHER ROUNDUP
NATIONAL WEATHER SERVICE CHEYENNE WY
400 AM MST SUN DEC 17 2017

NOTE:  "FAIR" INDICATES FEW OR NO CLOUDS BELOW 12,000 FEET
WITH NO SIGNIFICANT WEATHER AND/OR OBSTRUCTIONS TO VISIBILITY.

WYZ001-171200-
YELLOWSTONE NATIONAL PARK

CITY           SKY/WX    TMP DP  RH WIND       PRES   REMARKS
LK YELLOWSTONE   N/A     -5 -10  79 CALM      30.00S
W YELLOWSTONE  NOT AVBL

$$
WYZ002>013-054>058-071-098>099-171200-
NORTHERN WYOMING

CITY           SKY/WX    TMP DP  RH WIND       PRES   REMARKS
JACKSON        CLOUDY     3   0  87 NE5       30.05R WCI  -6
CODY           FAIR      17  14  88 S6        29.97F WCI   9
GREYBULL       CLOUDY    24  22  91 CALM      30.03R
WORLAND        CLOUDY    26  25  96 CALM      30.01S
SHERIDAN       FOG       22  20  92 CALM      29.98S VSB 1/4
BUFFALO        CLOUDY    24  19  81 SE8       29.94S WCI  15
GILLETTE       FAIR      18  17  96 W3        29.96F FOG
HULETT         LGT SNOW  27  25  93 CALM      29.97F
NEWCASTLE      CLOUDY    28  28 100 CALM      30.00S FOG

$$
WYZ014>020-022>026-101>103-171200-
CENTRAL WYOMING

CITY           SKY/WX    TMP DP  RH WIND       PRES   REMARKS
BIG PINEY      FAIR      13   9  84 N3        29.99R
PINEDALE       FAIR      12  10  92 NW12      29.98R WCI  -2
DUBOIS         FAIR      18  14  86 NW9       29.93S WCI   6
LANDER         CLOUDY    23  20  88 CALM      29.98R
RIVERTON       CLOUDY    23  22  96 SW6       29.99S WCI  16
CASPER         CLOUDY    23  20  88 W6        29.96S WCI  16
DOUGLAS        CLOUDY    26  25  96 SE8       29.97S WCI  18

$$
WYZ021-027>030-104>119-171200-
SOUTHERN WYOMING

CITY           SKY/WX    TMP DP  RH WIND       PRES   REMARKS
EVANSTON       CLOUDY    20  19  96 N6        30.03S WCI  12
FORT BRIDGER   FAIR      19  18  93 W17       30.04R WCI   4
ROCK SPRINGS   LGT SNOW  22  19  89 SW14      29.98R FOG     WCI   9
DIXON          CLOUDY    22  16  78 CALM      29.99S
RAWLINS        CLOUDY    25  22  88 W6        29.94R WCI  18
SARATOGA       CLOUDY    21  21 100 SE8       29.95S WCI  12
LARAMIE        MOCLDY     9   9 100 NW6       29.89R WCI  -1
CHEYENNE       CLOUDY    26  26 100 E5        29.92R FOG     WCI  20
TORRINGTON     CLOUDY    29  26  89 NE8       29.99S WCI  21
PINE BLUFFS    CLOUDY    28  28 100 NE5       29.96F WCI  23

$$




USA.gov is the U.S. government's official web portal to all federal, state and local government web resources and services.